Location: Noyers
(47.2770°N, 1.4032°E)
Time: 02:13:57
(UTC+00:00)

Cosmos 1437 Rocket - Pass Details

Date: 15 May 2026
Orbit: 439 x 476 km, 81.2° (Epoch: 8 June)

Event Time Altitude Azimuth Distance (km) Brightness Sun altitude
Exits shadow 20:03:47 - 139° (SE) 1,782 4.8 -6.4°
Reaches altitude 10° 20:04:20 10° 133° (SE) 1,622 4.5 -6.5°
Maximum altitude 20:06:45 18° 89° (E) 1,234 4.2 -6.8°
Drops below altitude 10° 20:09:13 10° 46° (NE) 1,645 5.2 -7.2°
Sets 20:11:49 0° 27° (NNE) 2,535 6.4 -7.5°
